This is the latest recevied weather packets stored in our database for station/object N5YHM-13. If no packets are shown the sender has not sent any weather packets the latest 10 day(s).
| Time | Temp. | Humidity | Pressure | Rain* | Wind** | Luminosity | Snow |
|---|---|---|---|---|---|---|---|
| 1777837026 | 23.33° C | 38% | 1022.2 hPa | 0 mm | - | 37 W/m² | - |
| 1777836722 | 23.33° C | 39% | 1022.3 hPa | 0 mm | - | 13 W/m² | - |
| 1777836418 | 23.89° C | 42% | 1022.2 hPa | 0 mm | - | 13 W/m² | - |
| 1777836113 | 23.89° C | 40% | 1022.6 hPa | 0 mm | - | 15 W/m² | - |
| 1777835809 | 23.89° C | 39% | 1022.3 hPa | 0 mm | - | 14 W/m² | - |
| 1777835506 | 23.89° C | 41% | 1022.5 hPa | 0 mm | - | 16 W/m² | - |
| 1777835198 | 23.89° C | 43% | 1022.4 hPa | 0 mm | - | 14 W/m² | - |
| 1777834895 | 23.33° C | 42% | 1022.5 hPa | 0 mm | - | 95 W/m² | - |
| 1777834592 | 22.78° C | 41% | 1022.7 hPa | 0 mm | - | 14 W/m² | - |
| 1777834287 | 23.33° C | 37% | 1022.8 hPa | 0 mm | - | 14 W/m² | - |
| 1777833982 | 23.33° C | 42% | 1022.8 hPa | 0 mm | - | 15 W/m² | - |
| 1777833678 | 22.78° C | 41% | 1022.9 hPa | 0 mm | - | 25 W/m² | - |
| 1777833375 | 22.78° C | 38% | 1023 hPa | 0 mm | - | 14 W/m² | - |
| 1777833072 | 23.33° C | 40% | 1023.1 hPa | 0 mm | - | 32 W/m² | - |
| 1777832771 | 22.78° C | 44% | 1023.2 hPa | 0 mm | - | 215 W/m² | - |
| 1777832468 | 23.33° C | 39% | 1023.3 hPa | 0 mm | - | 55 W/m² | - |
| 1777832165 | 23.33° C | 38% | 1023.4 hPa | 0 mm | - | 20 W/m² | - |
| 1777831861 | 23.33° C | 47% | 1023.4 hPa | 0 mm | - | 14 W/m² | - |
| 1777831559 | 22.78° C | 44% | 1023.5 hPa | 0 mm | - | 13 W/m² | - |
| 1777831256 | 22.78° C | 41% | 1023.5 hPa | 0 mm | - | 12 W/m² | - |
| 1777830953 | 22.78° C | 39% | 1023.3 hPa | 0 mm | - | 12 W/m² | - |
| 1777830650 | 22.78° C | 41% | 1023.4 hPa | 0 mm | - | 11 W/m² | - |
| 1777830342 | 22.78° C | 44% | 1023.5 hPa | 0 mm | - | 11 W/m² | - |
| 1777830038 | 22.22° C | 43% | 1023.7 hPa | 0 mm | - | 11 W/m² | - |
| 1777829733 | 22.22° C | 43% | 1023.8 hPa | 0 mm | - | 11 W/m² | - |
* Rain latest hour (hover to see other rain measurements)
** Current wind speed in m/s (hover to see current wind gust speed)